Weather History for KINK - October, 2011

Change the Weather History Date:

Saturday, October 1, 2011

  Actual Average Record
Temperature  
Mean Temperature 68 °F -  
Max Temperature 87 °F - - ()
Min Temperature 50 °F - - ()
Cooling Degree Days 3    
Growing Degree Days 18 (Base 50)    
Moisture  
Dew Point 37 °F    
Average Humidity 32    
Maximum Humidity 52    
Minimum Humidity 20    
Precipitation  
Precipitation 0.00 in - - ()
Sea Level Pressure  
Sea Level Pressure 30.08 in    
Wind  
Wind Speed 7 mph (ESE)    
Max Wind Speed 14 mph    
Max Gust Speed 22 mph    
Visibility 10 miles    
Events      
T = Trace of Precipitation, MM = Missing Value Source: NWS Daily Summary

Daily Weather History Graph

Daily Weather History Graph

Search for Another Location

Airport or City:

Trip Planner

Search our weather history database for the weather conditions in past years. The results will help you decide how hot, cold, wet, or windy it might be!

Date:

Astronomy

Oct. 01, 2011 Rise Set
Actual Time 7:46 AM CDT 7:37 PM CDT
Civil Twilight 7:22 AM CDT 8:02 PM CDT
Nautical Twilight 6:53 AM CDT 8:30 PM CDT
Astronomical Twilight 6:25 AM CDT 8:58 PM CDT
Moon 12:34 PM CDT (10/1) 10:58 PM CDT (10/1)
Length of Visible Light 12h 40m
Length of Day
11h 51m
Waxing Crescent, 24% of the Moon is Illuminated
Oct 1
Waxing Crescent
Oct 3
First Quarter
Oct 11
Full
Oct 19
Last Quarter
Oct 26
New

Hourly Weather History & Observations

Time (CDT) Temp. Dew Point Humidity Pressure Visibility Wind Dir Wind Speed Gust Speed Precip Events Conditions
12:53 AM 62.1 °F 34.0 °F 35% 30.09 in 10.0 mi East 5.8 mph - N/A   Clear
1:53 AM 63.0 °F 32.0 °F 31% 30.08 in 10.0 mi ESE 6.9 mph - N/A   Clear
2:53 AM 60.1 °F 33.1 °F 36% 30.09 in 10.0 mi ESE 4.6 mph - N/A   Clear
3:53 AM 57.9 °F 33.1 °F 39% 30.08 in 10.0 mi East 3.5 mph - N/A   Clear
4:53 AM 53.1 °F 32.0 °F 45% 30.09 in 10.0 mi North 6.9 mph - N/A   Clear
5:53 AM 52.0 °F 32.0 °F 47% 30.09 in 10.0 mi North 5.8 mph - N/A   Clear
6:53 AM 51.1 °F 33.1 °F 50% 30.11 in 10.0 mi North 5.8 mph - N/A   Clear
7:53 AM 50.0 °F 33.1 °F 52% 30.13 in 10.0 mi North 4.6 mph - N/A   Clear
8:53 AM 59.0 °F 32.0 °F 36% 30.14 in 10.0 mi ENE 3.5 mph - N/A   Clear
9:53 AM 69.1 °F 28.9 °F 22% 30.15 in 10.0 mi SE 6.9 mph - N/A   Clear
10:53 AM 75.0 °F 30.9 °F 20% 30.14 in 10.0 mi SSE 12.7 mph - N/A   Clear
11:53 AM 78.1 °F 34.0 °F 20% 30.13 in 10.0 mi SSE 13.8 mph 17.3 mph N/A   Clear
12:53 PM 80.1 °F 37.0 °F 21% 30.11 in 10.0 mi SE 9.2 mph 19.6 mph N/A   Clear
1:53 PM 82.9 °F 39.9 °F 22% 30.08 in 10.0 mi South 6.9 mph 21.9 mph N/A   Clear
2:53 PM 84.2 °F 39.2 °F 20% 30.16 in 10.0 mi SE 8.1 mph - N/A   Clear
3:53 PM 84.9 °F 41.0 °F 21% 30.03 in 10.0 mi ESE 9.2 mph - N/A   Clear
4:53 PM 86.0 °F 42.1 °F 21% 30.02 in 10.0 mi Variable 5.8 mph - N/A   Clear
5:53 PM 86.0 °F 43.0 °F 22% 30.02 in 10.0 mi South 5.8 mph - N/A   Clear
6:53 PM 84.0 °F 43.0 °F 24% 30.01 in 10.0 mi ESE 10.4 mph - N/A   Clear
7:53 PM 79.0 °F 44.1 °F 29% 30.03 in 10.0 mi ESE 5.8 mph - N/A   Clear
8:53 PM 75.9 °F 44.1 °F 32% 30.03 in 10.0 mi ESE 6.9 mph - N/A   Clear
9:53 PM 73.9 °F 45.0 °F 35% 30.03 in 10.0 mi ESE 8.1 mph - N/A   Clear
10:53 PM 71.6 °F 44.6 °F 38% 30.15 in 10.0 mi ESE 6.9 mph - N/A   Clear
11:53 PM 70.0 °F 44.1 °F 39% 30.04 in 10.0 mi SE 8.1 mph - N/A   Clear